CZ-6A DEB, 54624

Orbit data source: Space-Track

CZ-6A DEB, 54624 is space debris in SSO originally from a launch on Fri, 11 Nov 2022 UTC launched from the Taiyaun Space Center, China (TSC). Debris objects in space refer to the collection of defunct objects orbiting the Earth. Examples of debris include non-operational satellites, rocket bodies, and fragments generated from explosions, collisions, or faulty payload assembly.

Loading next visibility...
Identifier
54624, 2022-151PA
Orbit
SSO
Country
Flag of CNCN / PRC
Related business
Manufacturer
SAST
Mission
Spacecraft
Bus & Motor
Unknown
Mass
Unknown
Launch date (UTC)
2022-11-11 (3 years ago)
Launch vehicle
Unknown
Launch site
Taiyaun Space Center, China (TSC)
Object type
Payload
Rocket body
Debris
Shape & HBR
Unknown shape, 0.1 m
Radar Cross Section
Small (<0.1 m²)

Expand to show TLE details & history
Last TLE update: 1 day ago

TLE from 1 day ago
0 CZ-6A DEB
1 54624U 22151PA  25349.44215382  .00000506  00000-0  38447-3 0  9994
2 54624  98.9179 325.2051 0123877 233.4086 125.5627 13.94739269156124
Epoch: 2025-12-15T10:36Z
TLE epoch observation values (Epoch: 2025-12-15T10:36:42.090Z)
Latitude
-0.00003°
Longitude
81.68907°
Altitude
968.208 km
Speed
7.341 km/s
True Right ascension
21h 40m 49s
True Declination
0° 00' 00"
Sunlit
Object was in daylight at epoch
Visualization orbit readout
Latitude
Unknown
Longitude
Unknown
Altitude
Unknown
Speed
Unknown
Apparent Right ascension
Unknown
Apparent Declination
Unknown
Sunlit
N/A
Visualization observer readout
Local Sidereal Time
19:43:01
Azimuth
Unknown
Elevation
Unknown
Doppler factor
Unknown
Orbital elements
Apogee altitude
999.545 km
Perigee altitude
818.997 km
Semi-major axis
7,287.408 km
Eccentricity
0.01239
Inclination
98.9179°
RAAN
325.2051°
Arg. of periapsis
233.4086°
True anomaly
126.70707°
Mean anomaly
125.5627°
Eccentric anomaly
126.13592°
Mean motion
3.48886 °/min
Orbital period
103.19 mins
BSTAR
0.00038447
Loading maneuver chart data...
Computing Atmospheric mass density...
Loading historical data...
Loading historical data...
Loading historical data...
Loading historical data...
Loading historical data...
Loading historical data...
Loading historical data...

Documentation

Showing up to 5 results
|